,

(GMT )
Resia Pass

Weather History for LIVE - June, 2013

Change the Weather History Date:

Sunday, June 9, 2013

  Actual Average Record
Temperature  
Mean Temperature 55 °F -  
Max Temperature 60 °F 62 °F 78 °F (2004)
Min Temperature 48 °F 44 °F 35 °F (2005)
Degree Days  
Heating Degree Days 10    
Growing Degree Days 5 (Base 50)    
Moisture  
Dew Point 51 °F    
Average Humidity 89    
Maximum Humidity 100    
Minimum Humidity 63    
Precipitation  
Precipitation 0.00 in - - ()
Sea Level Pressure  
Sea Level Pressure 29.94 in    
Wind  
Wind Speed 3 mph ()    
Max Wind Speed 10 mph    
Max Gust Speed 20 mph    
Visibility 5.1 miles    
Events Rain , Thunderstorm    
Averages and records for this station are not official NWS values.
T = Trace of Precipitation, MM = Missing Value Source: Averaged Metar Reports

Daily Weather History Graph

Daily Weather History Graph

Search for Another Location

Airport or City:

Trip Planner

Search our weather history database for the weather conditions in past years. The results will help you decide how hot, cold, wet, or windy it might be!

Date:

Astronomy

Jun. 09, 2013 Rise Set
Actual Time 5:23 AM CEST 9:10 PM CEST
Civil Twilight 4:44 AM CEST 9:50 PM CEST
Nautical Twilight 3:51 AM CEST 10:43 PM CEST
Astronomical Twilight 2:36 AM CEST 11:59 PM CEST
Moon 6:10 AM CEST (6/9) 9:41 PM CEST (6/9)
Length of Visible Light 17h 05m
Length of Day
15h 46m
New Moon, 1% of the Moon is Illuminated
Jun 9
New Moon
Jun 16
First Quarter
Jun 23
Full
Jun 30
Last Quarter
Jul 8
New

Hourly Weather History & Observations

Time (CEST) Temp. Dew Point Humidity Pressure Visibility Wind Dir Wind Speed Gust Speed Precip Events Conditions
12:55 AM 53.6 °F 53.6 °F 100% 30.01 in 6.2 mi Calm Calm - N/A   Mostly Cloudy
1:55 AM 53.6 °F 53.6 °F 100% 29.98 in 6.2 mi Calm Calm - N/A   Mostly Cloudy
2:55 AM 53.6 °F 53.6 °F 100% 30.01 in 6.2 mi Calm Calm - N/A   Partly Cloudy
4:55 AM 53.6 °F 51.8 °F 94% 29.98 in 6.2 mi Calm Calm - N/A   Mostly Cloudy
5:55 AM 53.6 °F 51.8 °F 94% 29.98 in 6.2 mi Calm Calm - N/A   Mostly Cloudy
6:55 AM 53.6 °F 51.8 °F 94% 29.98 in 6.2 mi SSW 4.6 mph - N/A   Mostly Cloudy
7:55 AM 53.6 °F 51.8 °F 94% 29.98 in 6.2 mi SW 5.8 mph - N/A   Mostly Cloudy
8:55 AM 53.6 °F 51.8 °F 94% 29.98 in 6.2 mi SW 4.6 mph - N/A   Mostly Cloudy
9:55 AM 55.4 °F 51.8 °F 88% 29.95 in 6.2 mi SSE 8.1 mph - N/A   Mostly Cloudy
10:55 AM 55.4 °F 51.8 °F 88% 29.95 in 6.2 mi SSE 6.9 mph - N/A   Mostly Cloudy
11:55 AM 59.0 °F 50.0 °F 72% 29.92 in 6.2 mi SE 8.1 mph - N/A   Mostly Cloudy
12:55 PM 59.0 °F 50.0 °F 72% 29.92 in 6.2 mi South 6.9 mph - N/A   Overcast
1:55 PM 60.8 °F 53.6 °F 77% 29.95 in 4.3 mi SSE 4.6 mph - N/A Rain , Thunderstorm Thunderstorms and Rain
2:55 PM 59.0 °F 51.8 °F 77% 29.92 in 6.2 mi NE 5.8 mph - N/A   Mostly Cloudy
3:55 PM 60.8 °F 48.2 °F 63% 29.86 in 6.2 mi Calm Calm - N/A Thunderstorm Thunderstorm
4:55 PM 60.8 °F 51.8 °F 72% 29.89 in 6.2 mi SSE 6.9 mph - N/A   Mostly Cloudy
5:55 PM 55.4 °F 53.6 °F 94% 29.89 in 5.0 mi SE 10.4 mph - N/A Rain Light Rain
6:55 PM 53.6 °F 53.6 °F 100% 29.89 in 2.5 mi SSE 8.1 mph 19.6 mph N/A Rain Light Rain
7:55 PM 51.8 °F 50.0 °F 94% 29.89 in 2.5 mi SE 8.1 mph 19.6 mph N/A Rain Light Rain
8:55 PM 50.0 °F 50.0 °F 100% 29.89 in 2.5 mi ESE 6.9 mph - N/A Rain Light Rain
9:55 PM 50.0 °F 50.0 °F 100% 29.92 in 2.5 mi South 9.2 mph - N/A   Overcast
10:55 PM 50.0 °F 48.2 °F 94% 29.92 in 2.5 mi SE 6.9 mph - N/A   Overcast
11:55 PM 48.2 °F 46.4 °F 93% 29.89 in 2.5 mi ESE 5.8 mph - N/A   Overcast